Location: Aalen
(48.8330°N, 10.1000°E)
Time: 04:05:57
(UTC+01:00)

Envisat - Pass Details

Date: 07 December 2022
Orbit: 763 x 765 km, 98.2° (Epoch: 08 February)

Event Time Altitude Azimuth Distance (km) Brightness Sun altitude
Rises 04:28:57 0° 15° (NNE) 3,246 6.5 -33.4°
Reaches altitude 10° 04:31:17 10° 18° (NNE) 2,315 5.7 -33.0°
Enters shadow 04:32:49 20° 22° (NNE) 1,730 5.0 -32.8°
